Location: *
(12.6133°S, 172.1169°E)
Time: 01:34:37
(UTC+00:00)

Daily predictions for brighter satellites

Satellite Brightness Start Highest point End
(mag) Time Altitude Azimuth Time Altitude Azimuth Time Altitude Azimuth
OAO 3 Copernicus 4.5 06:39:22 10° NW 06:44:19 58° NE 06:49:18 10° ESE
CZ-2C R/B 4.1 06:40:46 10° ENE 06:44:25 18° ESE 06:48:03 10° SSE
Tsikada Rocket 4.3 06:38:59 10° N 06:45:12 79° W 06:51:34 10° S
CZ-4B R/B 3.8 06:41:32 10° S 06:46:58 66° WSW 06:52:27 10° NNW
Okean-O 4.0 06:48:17 10° SE 06:51:23 19° E 06:54:27 10° NE
CORIOLIS 4.3 06:47:49 10° S 06:53:18 83° WSW 06:58:41 10° NNW
MOS 1 Rocket 3.4 06:50:09 10° NNE 06:54:22 49° ESE 06:58:50 10° S
USA 234 3.3 06:49:34 10° NE 06:56:06 77° SE 07:02:40 10° SSW
Cosmos 1900 4.4 06:51:22 10° NNW 06:56:26 87° WSW 07:01:27 10° SSE
Cosmos 2278 Rocket 2.2 06:51:05 10° SSW 06:56:47 89° ESE 07:02:26 10° NNE
Meteor 1-15 Rocket 4.2 06:51:37 10° S 06:57:13 83° E 07:02:49 10° N
CZ-2D R/B 4.3 06:55:13 10° SE 06:58:25 24° E 07:01:35 10° NNE
IRS-1C Rocket 4.4 06:53:47 10° SSE 06:58:48 44° ENE 07:03:47 10° N
Cosmos 2034 Rocket 4.1 06:52:54 10° S 06:59:19 88° E 07:05:40 10° N
Intelsat 5-2 Rocket 4.0 06:52:23 10° WSW 07:04:32 85° SSE 07:08:03 14° ENE
Ariane H10 3.5 07:06:06 10° NW 07:07:45 13° NNW 07:09:05 10° NNE
Cosmos 1733 3.5 07:04:36 10° S 07:08:20 46° E 07:12:03 10° NNE
Helios 1A Rocket 3.1 07:09:13 10° SSE 07:13:11 49° E 07:17:08 10° N
Okean O Rocket 4.1 07:09:59 10° SSW 07:13:42 26° WSW 07:17:22 10° NW
SL-24 R/B 4.1 07:09:54 10° SSE 07:14:15 61° E 07:18:28 10° N
Atlas Centaur 2 4.3 07:09:27 10° WSW 07:15:40 26° SSW 07:20:58 10° SE
COSMOS 2455 3.0 07:10:07 10° SSW 07:16:08 79° WNW 07:22:07 10° NNE
CZ-2C R/B 4.0 07:12:49 10° SE 07:16:41 23° E 07:20:39 10° NNE
BREEZE-M DEB (TANK) 2.9 07:15:04 10° SSW 07:17:34 27° SE 07:18:01 25° ESE
Meteor 1-21 4.4 07:12:03 10° N 07:17:41 81° W 07:23:25 10° S
Meteor 1-22 Rocket 4.3 07:12:17 10° S 07:17:43 56° E 07:23:22 10° NNE
ARIANE 3 DEB 4.3 07:17:24 10° NNW 07:18:53 14° NNE 07:19:38 13° NE
ARIANE 5 R/B 3.5 07:15:50 10° NW 07:19:29 15° NNW 07:21:28 10° NNE
Cosmos 1455 Rocket 4.3 07:18:16 10° SE 07:21:22 20° ESE 07:21:22 20° ESE
Cosmos 1634 Rocket 4.0 07:18:36 10° S 07:24:40 56° E 07:30:40 10° NNE
ARIANE 44L R/B 3.2 07:18:26 10° W 07:25:36 40° NNW 07:26:59 24° NE
CZ-4 R/B 1.7 07:21:42 10° SSE 07:25:47 48° E 07:29:51 10° N
Cosmos 1975 Rocket 4.0 07:23:23 10° NNW 07:27:36 51° W 07:31:54 10° S
Cosmos 1867 4.3 07:24:00 10° N 07:28:41 30° ENE 07:30:42 23° ESE
Cosmos 1943 Rocket 3.9 07:26:18 10° SSE 07:28:26 15° SE 07:28:26 15° SE
SEDSat Delta rocket 4.2 07:25:05 10° NNW 07:29:54 32° NNE 07:31:27 26° ENE
SeaSat 1 2.9 07:25:34 10° SSE 07:30:27 63° WSW 07:35:18 10° NNW
Cosmos 1340 Rocket 2.6 07:26:38 10° S 07:30:34 81° E 07:34:28 10° N
BLOCK DM-SL R/B 3.5 07:28:25 10° WNW 07:32:20 39° N 07:34:18 25° ENE
GPS 2-14 Rocket1 4.0 07:29:20 10° WSW 07:32:41 29° S 07:34:27 20° SE
GPS 2-12 Rocket1 4.3 07:29:48 10° WSW 07:34:09 33° S 07:36:36 21° SE
Delta 7925 Rocket 3.5 07:30:08 10° WNW 07:34:46 65° SSW 07:37:55 23° SE
Okean 1 Rocket 4.4 07:35:19 10° SSW 07:39:33 42° W 07:43:45 10° NNW
H-2A R/B4.507:45:14NNE07:45:14NNE07:34:28SE
STPSAT 2 (USA 217) 4.5 07:37:12 10° N 07:41:41 70° ENE 07:46:15 10° SSE
USA 215 3.3 07:37:52 15° SE 07:43:13 53° NE 07:49:33 10° NNW
Cosmos 1943 3.9 07:39:25 10° NNW 07:44:58 55° WSW 07:50:33 10° S
Cosmos 2084 Rocket 4.5 07:43:33 10° NW 07:47:59 50° WSW 07:52:26 10° SSE
YAOGAN 1 2.4 07:46:15 10° SSE 07:50:36 85° E 07:54:55 10° N
USA 276 4.2 07:48:17 10° WSW 07:50:57 24° NW 07:52:05 20° NNW
Cosmos 2279 Rocket 3.9 07:51:38 10° S 07:57:50 66° E 08:03:47 11° NNE
GPS 2-04 Rocket1 4.0 07:57:44 10° WNW 08:01:37 37° SSW 08:02:36 32° S
SWIFT 3.8 08:02:10 10° WSW 08:05:39 26° S 08:05:39 26° S
Cosmos 1025 Rocket 4.3 08:08:02 10° NNW 08:12:10 41° W 08:16:20 10° SSW
Ariane 3 Deb 4.5 07:41:34 10° W 08:13:05 53° NNW 08:15:28 39° NNE
Ariane H10 4.4 07:58:01 10° WNW 08:14:39 38° N 08:17:08 33° NNE
Cosmos 1470 4.2 08:12:15 10° SSW 08:14:36 33° SSW 08:14:36 33° SSW
ARIANE 5 R/B 4.5 08:20:16 10° NW 08:22:41 29° N 08:22:41 29° N
CZ-2C R/B 4.2 08:19:21 10° NNW 08:24:21 34° W 08:29:21 10° SW
Cosmos 2369 Rocket 4.3 08:21:03 10° S 08:21:49 14° SSE 08:21:49 14° SSE
Hubble Space Telescope 3.7 08:29:56 10° SSW 08:30:08 11° SSW 08:30:08 11° SSW
ARIANE 5 R/B 3.8 08:22:18 10° W 08:41:56 50° NNW 08:41:56 50° NNW
Cosmos 1943 Rocket 4.3 09:07:59 10° SW 09:10:02 21° SW 09:10:02 21° SW
ARIANE 5 R/B 4.3 08:03:51 10° W 09:22:35 61° NNW 09:22:35 61° NNW
